TimePDT,TemperatureF,Dew PointF,Humidity,Sea Level PressureIn,VisibilityMPH,Wind Direction,Wind SpeedMPH,Gust SpeedMPH,PrecipitationIn,Events,Conditions,WindDirDegrees,DateUTC
12:35 AM,53.6,50.0,88,30.03,7.0,West,4.6,-,N/A,,Clear,280,2012-10-20 07:35:00
12:55 AM,51.8,50.0,94,30.02,7.0,West,4.6,-,N/A,,Clear,260,2012-10-20 07:55:00
1:15 AM,51.8,50.0,94,30.02,7.0,West,4.6,-,N/A,,Clear,280,2012-10-20 08:15:00
1:35 AM,51.8,48.2,88,30.02,7.0,West,4.6,-,N/A,,Clear,260,2012-10-20 08:35:00
1:55 AM,51.8,48.2,88,30.02,8.0,West,6.9,-,N/A,,Clear,260,2012-10-20 08:55:00
2:15 AM,50.0,48.2,94,30.01,8.0,WNW,4.6,-,N/A,,Clear,290,2012-10-20 09:15:00
2:35 AM,51.8,48.2,88,30.01,8.0,West,4.6,-,N/A,,Clear,270,2012-10-20 09:35:00
2:55 AM,50.0,46.4,87,30.00,9.0,West,6.9,-,N/A,,Clear,260,2012-10-20 09:55:00
3:15 AM,50.0,46.4,87,29.99,8.0,West,6.9,-,N/A,,Clear,270,2012-10-20 10:15:00
3:35 AM,50.0,46.4,87,29.99,10.0,West,6.9,-,N/A,,Clear,260,2012-10-20 10:35:00
3:55 AM,50.0,46.4,87,29.98,9.0,West,5.8,-,N/A,,Clear,270,2012-10-20 10:55:00
4:15 AM,50.0,46.4,87,29.98,10.0,WNW,5.8,-,N/A,,Clear,290,2012-10-20 11:15:00
4:35 AM,51.8,46.4,82,29.98,10.0,NW,9.2,-,N/A,,Clear,310,2012-10-20 11:35:00
4:55 AM,51.8,46.4,82,29.98,10.0,NW,8.1,-,N/A,,Clear,320,2012-10-20 11:55:00
5:15 AM,55.4,48.2,77,29.97,10.0,NW,5.8,-,N/A,,Clear,310,2012-10-20 12:15:00
5:35 AM,51.8,46.4,82,29.97,9.0,West,3.5,-,N/A,,Clear,280,2012-10-20 12:35:00
5:55 AM,50.0,46.4,87,29.97,10.0,West,5.8,-,N/A,,Clear,280,2012-10-20 12:55:00
6:15 AM,50.0,46.4,87,29.97,9.0,WNW,4.6,-,N/A,,Clear,290,2012-10-20 13:15:00
6:55 AM,50.0,46.4,87,29.97,8.0,NW,8.1,-,N/A,,Clear,320,2012-10-20 13:55:00
7:15 AM,50.0,48.2,94,29.97,7.0,NW,9.2,-,N/A,,Clear,310,2012-10-20 14:15:00
7:35 AM,55.4,48.2,77,29.98,7.0,WNW,4.6,-,N/A,,Clear,300,2012-10-20 14:35:00
7:55 AM,57.2,50.0,77,29.98,8.0,NW,10.4,-,N/A,,Clear,310,2012-10-20 14:55:00
8:15 AM,57.2,50.0,77,29.99,8.0,NW,11.5,-,N/A,,Clear,320,2012-10-20 15:15:00
8:35 AM,59.0,50.0,72,29.99,7.0,NW,12.7,-,N/A,,Clear,310,2012-10-20 15:35:00
8:55 AM,59.0,50.0,72,29.99,8.0,NW,12.7,-,N/A,,Clear,320,2012-10-20 15:55:00
9:15 AM,60.8,50.0,68,29.99,8.0,NW,11.5,17.3,N/A,,Clear,310,2012-10-20 16:15:00
9:35 AM,62.6,50.0,63,29.98,8.0,NW,10.4,-,N/A,,Clear,310,2012-10-20 16:35:00
9:55 AM,64.4,48.2,56,29.98,9.0,NW,12.7,-,N/A,,Clear,310,2012-10-20 16:55:00
10:15 AM,66.2,48.2,52,29.97,8.0,NW,12.7,19.6,N/A,,Clear,310,2012-10-20 17:15:00
10:35 AM,66.2,48.2,52,29.97,7.0,NW,13.8,18.4,N/A,,Clear,310,2012-10-20 17:35:00
10:55 AM,66.2,48.2,52,29.96,5.0,NW,17.3,21.9,N/A,,Haze,310,2012-10-20 17:55:00
11:15 AM,66.2,46.4,49,29.96,7.0,NW,16.1,-,N/A,,Clear,310,2012-10-20 18:15:00
11:35 AM,68.0,46.4,46,29.95,7.0,NW,13.8,21.9,N/A,,Clear,310,2012-10-20 18:35:00
11:55 AM,68.0,46.4,46,29.94,8.0,NW,17.3,21.9,N/A,,Clear,320,2012-10-20 18:55:00
12:15 PM,68.0,46.4,46,29.94,8.0,NW,18.4,25.3,N/A,,Clear,310,2012-10-20 19:15:00
12:35 PM,68.0,46.4,46,29.93,8.0,NW,18.4,23.0,N/A,,Clear,310,2012-10-20 19:35:00
12:55 PM,68.0,46.4,46,29.92,8.0,NW,18.4,24.2,N/A,,Clear,310,2012-10-20 19:55:00
1:15 PM,69.8,46.4,43,29.91,9.0,NW,19.6,23.0,N/A,,Clear,320,2012-10-20 20:15:00
1:35 PM,69.8,46.4,43,29.91,9.0,NW,18.4,23.0,N/A,,Clear,310,2012-10-20 20:35:00
1:55 PM,69.8,44.6,40,29.90,8.0,NW,20.7,26.5,N/A,,Clear,320,2012-10-20 20:55:00
2:15 PM,69.8,42.8,38,29.90,9.0,NW,20.7,29.9,N/A,,Clear,320,2012-10-20 21:15:00
2:35 PM,68.0,42.8,40,29.89,9.0,NW,23.0,26.5,N/A,,Clear,320,2012-10-20 21:35:00
2:55 PM,68.0,42.8,40,29.90,9.0,NW,21.9,28.8,N/A,,Clear,310,2012-10-20 21:55:00
3:15 PM,68.0,42.8,40,29.89,10.0,NW,18.4,25.3,N/A,,Clear,320,2012-10-20 22:15:00
3:35 PM,68.0,41.0,37,29.89,10.0,NW,16.1,26.5,N/A,,Clear,320,2012-10-20 22:35:00
3:55 PM,68.0,42.8,40,29.89,10.0,NW,18.4,24.2,N/A,,Clear,310,2012-10-20 22:55:00
4:15 PM,68.0,42.8,40,29.88,10.0,NW,18.4,23.0,N/A,,Clear,320,2012-10-20 23:15:00
4:35 PM,66.2,42.8,43,29.89,10.0,NW,17.3,21.9,N/A,,Clear,310,2012-10-20 23:35:00
4:55 PM,66.2,41.0,40,29.89,10.0,NW,17.3,23.0,N/A,,Clear,320,2012-10-20 23:55:00
5:15 PM,64.4,42.8,45,29.89,10.0,NW,16.1,-,N/A,,Clear,310,2012-10-21 00:15:00
5:55 PM,62.6,46.4,55,29.88,9.0,NW,19.6,23.0,N/A,,Clear,320,2012-10-21 00:55:00
6:15 PM,62.6,46.4,55,29.88,9.0,NW,13.8,21.9,N/A,,Clear,310,2012-10-21 01:15:00
6:35 PM,60.8,48.2,63,29.88,10.0,WNW,13.8,-,N/A,,Clear,300,2012-10-21 01:35:00
6:55 PM,60.8,48.2,63,29.89,10.0,West,12.7,18.4,N/A,,Clear,280,2012-10-21 01:55:00
7:15 PM,60.8,48.2,63,29.90,10.0,WNW,13.8,19.6,N/A,,Clear,300,2012-10-21 02:15:00
7:35 PM,59.0,48.2,67,29.90,10.0,WNW,10.4,-,N/A,,Clear,300,2012-10-21 02:35:00
7:55 PM,59.0,48.2,67,29.90,10.0,WNW,11.5,-,N/A,,Clear,300,2012-10-21 02:55:00
8:15 PM,59.0,48.2,67,29.90,10.0,WNW,11.5,-,N/A,,Clear,300,2012-10-21 03:15:00
8:55 PM,57.2,48.2,72,29.91,10.0,WNW,9.2,-,N/A,,Clear,300,2012-10-21 03:55:00
9:15 PM,57.2,48.2,72,29.91,10.0,NW,8.1,-,N/A,,Clear,310,2012-10-21 04:15:00
9:35 PM,57.2,48.2,72,29.91,10.0,WNW,10.4,-,N/A,,Clear,300,2012-10-21 04:35:00
9:55 PM,57.2,48.2,72,29.91,9.0,WNW,12.7,-,N/A,,Clear,300,2012-10-21 04:55:00
10:15 PM,57.2,46.4,67,29.91,9.0,WNW,9.2,-,N/A,,Clear,290,2012-10-21 05:15:00
10:35 PM,57.2,46.4,67,29.92,10.0,WNW,8.1,-,N/A,,Clear,290,2012-10-21 05:35:00
10:55 PM,55.4,46.4,72,29.91,10.0,West,9.2,-,N/A,,Clear,280,2012-10-21 05:55:00
11:15 PM,55.4,48.2,77,29.91,8.0,West,10.4,-,N/A,,Clear,280,2012-10-21 06:15:00
11:35 PM,55.4,48.2,77,29.91,8.0,West,11.5,-,N/A,,Clear,280,2012-10-21 06:35:00
11:55 PM,55.4,48.2,77,29.91,8.0,WNW,11.5,-,N/A,,Clear,290,2012-10-21 06:55:00